TimeEST,TemperatureF,Dew PointF,Humidity,Sea Level PressureIn,VisibilityMPH,Wind Direction,Wind SpeedMPH,Gust SpeedMPH,PrecipitationIn,Events,Conditions,WindDirDegrees,DateUTC
12:51 AM,24.1,21.0,88,30.39,8.0,Calm,Calm,-,N/A,,Clear,0,2013-01-08 05:51:00
1:51 AM,25.0,21.0,85,30.38,6.0,Calm,Calm,-,N/A,,Clear,0,2013-01-08 06:51:00
2:51 AM,23.0,19.9,88,30.37,6.0,Calm,Calm,-,N/A,,Clear,0,2013-01-08 07:51:00
3:51 AM,21.9,19.9,92,30.37,6.0,Calm,Calm,-,N/A,,Clear,0,2013-01-08 08:51:00
4:51 AM,21.9,19.0,89,30.38,6.0,Calm,Calm,-,N/A,,Clear,0,2013-01-08 09:51:00
5:51 AM,21.9,18.0,85,30.38,5.0,Calm,Calm,-,N/A,,Clear,0,2013-01-08 10:51:00
6:51 AM,23.0,19.9,88,30.40,5.0,Calm,Calm,-,N/A,,Clear,0,2013-01-08 11:51:00
7:51 AM,21.0,18.0,88,30.41,4.0,Calm,Calm,-,N/A,,Clear,0,2013-01-08 12:51:00
8:51 AM,28.0,24.1,85,30.41,4.0,Calm,Calm,-,N/A,,Clear,0,2013-01-08 13:51:00
9:51 AM,33.1,27.0,78,30.41,4.0,Calm,Calm,-,N/A,,Haze,0,2013-01-08 14:51:00
11:51 AM,41.0,28.9,62,30.38,10.0,WSW,9.2,-,0.00,Rain,Light Rain,250,2013-01-08 16:51:00
12:51 PM,44.1,28.0,53,30.37,10.0,WSW,10.4,-,0.00,,Clear,250,2013-01-08 17:51:00
1:51 PM,45.0,28.0,52,30.36,10.0,WSW,6.9,-,0.00,,Clear,250,2013-01-08 18:51:00
2:51 PM,45.0,28.0,52,30.36,9.0,SSW,9.2,-,N/A,,Clear,200,2013-01-08 19:51:00
3:51 PM,44.1,28.9,55,30.38,9.0,WSW,10.4,-,N/A,,Clear,250,2013-01-08 20:51:00
4:51 PM,39.0,27.0,62,30.38,9.0,WSW,8.1,-,N/A,,Clear,250,2013-01-08 21:51:00
5:51 PM,37.9,27.0,65,30.39,10.0,West,5.8,-,N/A,,Clear,280,2013-01-08 22:51:00
6:51 PM,37.9,27.0,65,30.39,9.0,West,4.6,-,N/A,,Clear,270,2013-01-08 23:51:00
7:51 PM,34.0,27.0,75,30.40,7.0,Calm,Calm,-,N/A,,Clear,0,2013-01-09 00:51:00
8:51 PM,30.0,25.0,82,30.39,6.0,Calm,Calm,-,N/A,,Haze,0,2013-01-09 01:51:00
9:51 PM,30.9,26.1,82,30.39,6.0,Calm,Calm,-,N/A,,Haze,0,2013-01-09 02:51:00
10:51 PM,27.0,24.1,89,30.40,5.0,Calm,Calm,-,N/A,,Clear,0,2013-01-09 03:51:00
11:51 PM,27.0,25.0,92,30.40,4.0,Calm,Calm,-,N/A,,Clear,0,2013-01-09 04:51:00